Weather History for Monticello, AR

Change the Weather History Date:

Sunday, January 26, 2014

  Actual Average Record
Temperature  
Mean Temperature 54 °F -  
Max Temperature 73 °F 55 °F 77 °F (1970)
Min Temperature 39 °F 31 °F 13 °F (1985)
Degree Days  
Heating Degree Days 12    
Growing Degree Days 4 (Base 50)    
Moisture  
Dew Point 29 °F    
Average Humidity 36    
Maximum Humidity 60    
Minimum Humidity 22    
Precipitation  
Precipitation 0.00 in - - ()
Sea Level Pressure  
Sea Level Pressure 29.86 in    
Wind  
Wind Speed 5 mph (SSW)    
Max Wind Speed 15 mph    
Max Gust Speed 21 mph    
Visibility 10 miles    
Events      
Averages and records for this station are not official NWS values.
T = Trace of Precipitation, MM = Missing Value Source: NWS Daily Summary

Daily Weather History Graph

Daily Weather History Graph

Search for Another Location

Airport:

Trip Planner

Search our weather history database for the weather conditions in past years. The results will help you decide how hot, cold, wet, or windy it might be!

Date:

Astronomy

Jan. 26, 2014 Rise Set
Actual Time 7:07 AM CST 5:32 PM CST
Civil Twilight 6:40 AM CST 5:58 PM CST
Nautical Twilight 6:10 AM CST 6:28 PM CST
Astronomical Twilight 5:41 AM CST 6:58 PM CST
Moon 2:43 AM CST (1/26) 1:23 PM CST (1/26)
Length of Visible Light 11h 18m
Length of Day
10h 25m
Waning Crescent, 23% of the Moon is Illuminated
Jan 26
Waning Crescent
Jan 30
New
Feb 6
First Quarter
Feb 14
Full
Feb 22
Last Quarter

Hourly Weather History & Observations

Time (CST) Temp. Dew Point Humidity Pressure Visibility Wind Dir Wind Speed Gust Speed Precip Events Conditions
12:53 AM 39.9 °F 27.0 °F 60% 29.96 in 10.0 mi Calm Calm - N/A   Clear
1:53 AM 57.9 °F 28.9 °F 33% 29.95 in 10.0 mi WSW 4.6 mph - N/A   Clear
2:53 AM 54.0 °F 28.9 °F 38% 29.93 in 10.0 mi West 3.5 mph - N/A   Clear
3:53 AM 57.0 °F 28.9 °F 34% 29.94 in 10.0 mi WSW 5.8 mph - N/A   Clear
4:53 AM 57.9 °F 28.9 °F 33% 29.92 in 10.0 mi WSW 4.6 mph - N/A   Clear
5:53 AM 57.0 °F 28.9 °F 34% 29.93 in 10.0 mi SW 4.6 mph - N/A   Clear
6:53 AM 45.0 °F 28.9 °F 53% 29.93 in 10.0 mi Calm Calm - N/A   Clear
7:53 AM 48.0 °F 28.9 °F 48% 29.94 in 10.0 mi South 3.5 mph - N/A   Clear
8:53 AM 63.0 °F 30.0 °F 29% 29.94 in 10.0 mi SSW 5.8 mph - 0.00 in   Clear
9:53 AM 68.0 °F 30.0 °F 24% 29.94 in 10.0 mi SSW 8.1 mph - N/A   Clear
10:53 AM 68.0 °F 30.9 °F 25% 29.92 in 10.0 mi SSW 10.4 mph - 0.00 in   Clear
11:53 AM 73.0 °F 32.0 °F 22% 29.87 in 10.0 mi SSW 15.0 mph 20.7 mph N/A   Clear
12:53 PM - - N/A% 29.83 in 10.0 mi SW 9.2 mph 17.3 mph N/A   Clear
1:53 PM - - N/A% 29.80 in 10.0 mi South 11.5 mph - N/A   Clear
2:53 PM - - N/A% 29.79 in 10.0 mi SSW 10.4 mph - N/A   Mostly Cloudy
3:53 PM - - N/A% 29.78 in 10.0 mi South 9.2 mph - N/A   Mostly Cloudy
4:53 PM - - N/A% 29.76 in 10.0 mi South 5.8 mph - N/A   Clear
5:53 PM - - N/A% 29.75 in 10.0 mi South 3.5 mph - N/A   Clear
6:53 PM - - N/A% 29.78 in 10.0 mi South 3.5 mph - 0.00 in   Clear
7:53 PM - - N/A% 29.79 in 10.0 mi South 3.5 mph - N/A   Clear
8:53 PM - - N/A% 29.82 in 10.0 mi SSW 3.5 mph - N/A   Mostly Cloudy
9:53 PM - - N/A% 29.81 in 10.0 mi Calm Calm - N/A   Clear
10:53 PM - - N/A% 29.81 in 10.0 mi South 3.5 mph - N/A   Clear
11:53 PM - - N/A% 29.81 in 10.0 mi Calm Calm - N/A   Clear